TimeMST,TemperatureF,Dew PointF,Humidity,Sea Level PressureIn,VisibilityMPH,Wind Direction,Wind SpeedMPH,Gust SpeedMPH,PrecipitationIn,Events,Conditions,WindDirDegrees,DateUTC
1:53 AM,18.0,10.9,74,30.17,10.0,Variable,5.8,-,N/A,,Clear,0,2013-02-19 08:53:00
2:53 AM,16.0,7.0,68,30.16,10.0,Calm,Calm,-,N/A,,Clear,0,2013-02-19 09:53:00
3:53 AM,16.0,8.1,71,30.15,10.0,South,5.8,-,N/A,,Clear,190,2013-02-19 10:53:00
4:53 AM,16.0,8.1,71,30.14,10.0,Variable,5.8,-,N/A,,Clear,0,2013-02-19 11:53:00
5:53 AM,14.0,7.0,74,30.14,10.0,Variable,3.5,-,N/A,,Clear,0,2013-02-19 12:53:00
6:53 AM,14.0,7.0,74,30.16,10.0,Variable,5.8,-,N/A,,Clear,0,2013-02-19 13:53:00
7:53 AM,17.1,8.1,68,30.15,10.0,West,5.8,-,N/A,,Clear,280,2013-02-19 14:53:00
8:53 AM,21.9,8.1,55,30.12,10.0,Variable,5.8,-,N/A,,Clear,0,2013-02-19 15:53:00
9:53 AM,25.0,7.0,46,30.09,10.0,Variable,3.5,-,N/A,,Clear,0,2013-02-19 16:53:00
11:53 AM,33.1,7.0,34,29.97,10.0,Calm,Calm,-,N/A,,Clear,0,2013-02-19 18:53:00
12:53 PM,34.0,9.0,35,29.91,10.0,Variable,3.5,-,N/A,,Clear,0,2013-02-19 19:53:00
1:53 PM,37.9,10.0,32,29.86,10.0,Calm,Calm,-,N/A,,Clear,0,2013-02-19 20:53:00
2:53 PM,39.9,12.9,33,29.83,10.0,Variable,4.6,-,N/A,,Clear,0,2013-02-19 21:53:00
3:53 PM,41.0,14.0,33,29.80,10.0,SE,4.6,-,N/A,,Clear,140,2013-02-19 22:53:00
5:53 PM,37.9,18.0,45,29.80,10.0,Calm,Calm,-,N/A,,Clear,0,2013-02-20 00:53:00
6:53 PM,33.1,18.0,54,29.82,10.0,Calm,Calm,-,N/A,,Clear,0,2013-02-20 01:53:00
7:53 PM,28.9,19.0,67,29.81,10.0,SSW,4.6,-,N/A,,Clear,200,2013-02-20 02:53:00
8:53 PM,27.0,17.1,66,29.79,10.0,East,3.5,-,N/A,,Clear,100,2013-02-20 03:53:00
9:53 PM,25.0,16.0,69,29.79,10.0,Calm,Calm,-,N/A,,Clear,0,2013-02-20 04:53:00
10:53 PM,25.0,15.1,66,29.76,10.0,SW,3.5,-,N/A,,Clear,220,2013-02-20 05:53:00
11:53 PM,24.1,15.1,69,29.73,10.0,SSW,8.1,-,N/A,,Clear,200,2013-02-20 06:53:00